Location: Calvatone
(45.1167°N, 10.4333°E)
Time: 08:57:32
(UTC+00:00)

METEOR M2 - Pass Details

Date: 06 December 2023
Orbit: 818 x 826 km, 98.4° (Epoch: 24 February)

Event Time Altitude Azimuth Distance (km) Brightness Sun altitude
Rises 04:37:42 0° 20° (NNE) 3,370 ? -21.1°
Reaches altitude 10° 04:40:12 10° 28° (NNE) 2,431 ? -20.6°
Maximum altitude 04:45:16 41° 97° (E) 1,185 ? -19.8°
Drops below altitude 10° 04:50:17 10° 167° (SSE) 2,410 ? -18.9°
Sets 04:52:45 0° 175° (S) 3,337 ? -18.5°
